Find Insat 2C

NORAD ID: 23731 Int'l Des: 1995-067 Owner: ISRO Country: IN operational
HEOCIRCULAR

リアルタイム位置

3D地球を読み込み中...

Insat 2Cについて

説明を読み込み中...

次回通過

Passes for default location (London). Set your location on the main map for personalized predictions.

高度履歴

Loading altitude history...

軌道要素

1 23731U 95067B 26106.56433740 -.00000342 00000-0 00000+0 0 9999
2 23731 14.2712 8.7282 0004501 20.5784 156.4651 0.99789053110794
Epoch: Apr 16, 2026 • Age: 20 hours

現在のステータス

高度 35922.1 km
速度 3.07 km/s
衛星直下点 13.19°N, 137.16°E
打ち上げ日 Dec 6, 1995
運用期間 30.3 years
タイプ other

技術仕様

分類 Payload
質量 2050.00 kg
乾燥質量 980.00 kg
総質量 2050.00 kg
長さ 2.70 m
直径 2.30 m
スパン 14.60 m
形状 Box + 2 Pan
製造者 ISRO
バスタイプ I2K
フェーズステータス In Orbit
所有者/国 ISRO/IN

Most Searched